Starlink 32376

operational
NORAD ID: 61707 Int'l Des: 2024-196 Owner: SPXS Country: US Constellation: starlink
LEOCIRCULAR

About Starlink 32376

Description loading...

Live Position

Loading 3D Globe...

Upcoming Passes

Altitude History

Altitude vs Time

uPlot chart will show altitude changes over time

Two-Line Element Set

1 61707U 24196A 25259.11909782 -.00001967 00000-0 -54342-4 0 9990
2 61707 53.1597 191.8797 0000836 98.1952 261.9144 15.30183595 50446
Epoch: Sep 16, 2025 • Age: 14 hours

Current Status

Altitude 485.8 km
Velocity 7.62 km/s
Sub-Earth Point -32.85°S, 156.65°E
Launch Date Oct 30, 2024
Age 0.8 years
Type internet

Technical Details

Classification Payload
Mass 730.00 kg
Dry Mass 700.00 kg
Total Mass 730.00 kg
Length 0.30 m
Diameter 4.10 m
Span 29.00 m
Shape Box + pan
Manufacturer SPXS
Bus Type Starlink V2M
Phase Status In Orbit
Owner/State SPXS/US

Large Constellations

Loading constellations...